Flag for USA

Past Weather in Merritt Island, Florida, USA — Yesterday and Last 2 Weeks

Now
78 °F

Clear.


Feels Like: 79 °F
Forecast: 84 / 75 °F
Wind: 12 mph from Northeast

Location: Cocoa / Patrick Air Force Base
Current Time: Sep 23, 2020 at 12:38:35 am
Latest Report: Sep 22, 2020 at 11:56 pm
Visibility: 10 mi
Pressure30.04 "Hg
Humidity: 47%
Dew Point: 56 °F
Location of Merritt IslandLocation

Past Weather in Merritt Island — Graph

°F

Merritt Island Temperature Yesterday

Maximum temperature yesterday: 84 °F (at 11:18 am)
Minimum temperature yesterday: 78 °F (at 6:56 am)
Average temperature yesterday: 81 °F

High & Low Weather Summary for the Past Weeks

 TemperatureHumidityPressure
High93 °F (Sep 17, 1:56 pm)86% (Sep 18, 6:56 am)30.10 "Hg (Sep 18, 6:56 am)
Low77 °F (Sep 13, 12:56 am)43% (Sep 22, 3:03 pm)29.82 "Hg (Sep 12, 4:56 am)
Average82 °F70%29.95 "Hg
* Reported Sep 7 10:56 pm — Sep 22 10:56 pm, Merritt Island. Weather by CustomWeather, © 2020

Note: Actual official high and low records may vary slightly from our data, if they occured in-between our weather recording intervals... More about our weather records

Merritt Island Weather History for the Previous 24 Hours

Scroll right to see more
 ConditionsComfort  
Time TempWeatherWind HumidityBarometerVisibility
10:56 pm
Tue, Sep 22
79 °FPassing clouds.13 mph49%30.05 "Hg10 mi
9:56 pm79 °FPassing clouds.15 mph51%30.05 "Hg10 mi
8:56 pm79 °FClear.14 mph50%30.04 "Hg10 mi
7:56 pm79 °FPassing clouds.15 mph54%30.03 "Hg10 mi
6:56 pm80 °FSunny.14 mph54%30.03 "Hg10 mi
5:56 pm82 °FSunny.15 mph50%30.02 "Hg10 mi
4:56 pm83 °FSunny.18 mph50%30.03 "Hg10 mi
3:56 pm82 °FSunny.17 mph51%30.04 "Hg10 mi
3:03 pm84 °FPassing clouds.15 mph43%30.05 "Hg10 mi
1:56 pm83 °FPassing clouds.14 mph47%30.07 "Hg10 mi
12:56 pm83 °FScattered clouds.16 mph52%30.08 "Hg10 mi
11:56 am83 °FPassing clouds.20 mph56%30.09 "Hg10 mi
11:18 am84 °FPassing clouds.18 mph51%30.10 "Hg10 mi
10:56 am81 °FPassing clouds.15 mph54%30.09 "Hg10 mi
9:56 am81 °FSunny.18 mph56%30.08 "Hg10 mi
8:56 am80 °FPassing clouds.15 mph54%30.07 "Hg10 mi
7:56 am80 °FScattered clouds.17 mph56%30.05 "Hg10 mi
6:56 am78 °FPassing clouds.18 mph62%30.04 "Hg10 mi
5:56 am79 °FClear.18 mph58%30.03 "Hg10 mi
4:56 am80 °FClear.20 mph53%30.02 "Hg10 mi
3:56 am80 °FClear.21 mph56%30.02 "Hg10 mi
2:56 am80 °FClear.20 mph49%30.03 "Hg10 mi
1:56 am80 °FClear.21 mph54%30.04 "Hg10 mi
12:56 am80 °FClear.20 mph57%30.06 "Hg10 mi
Weather by CustomWeather, © 2020

See weather overview